This is the latest recevied weather packets stored in our database for station/object SR9NSK-1. If no packets are shown the sender has not sent any weather packets the latest 10 day(s).
| Time | Temp. | Humidity | Pressure | Rain* | Wind** | Luminosity | Snow |
|---|---|---|---|---|---|---|---|
| 1788565035 | 12.78° C | 78% | 874.6 hPa | - | - | - | - |
| 1788564915 | 12.78° C | 77% | 874.6 hPa | - | - | - | - |
| 1788564795 | 12.78° C | 77% | 874.6 hPa | - | - | - | - |
| 1788564673 | 12.78° C | 77% | 874.6 hPa | - | - | - | - |
| 1788564553 | 13.33° C | 77% | 874.6 hPa | - | - | - | - |
| 1788564434 | 13.33° C | 77% | 874.6 hPa | - | - | - | - |
| 1788564313 | 13.33° C | 76% | 874.5 hPa | - | - | - | - |
| 1788564193 | 13.33° C | 76% | 874.5 hPa | - | - | - | - |
| 1788564073 | 13.89° C | 75% | 874.5 hPa | - | - | - | - |
| 1788563953 | 13.89° C | 75% | 874.5 hPa | - | - | - | - |
| 1788563833 | 14.44° C | 75% | 874.5 hPa | - | - | - | - |
| 1788563713 | 14.44° C | 75% | 874.5 hPa | - | - | - | - |
| 1788563471 | 15° C | 74% | 874.4 hPa | - | - | - | - |
| 1788563351 | 15° C | 74% | 874.4 hPa | - | - | - | - |
| 1788563231 | 15.56° C | 73% | 874.5 hPa | - | - | - | - |
| 1788563110 | 15.56° C | 73% | 874.4 hPa | - | - | - | - |
| 1788562990 | 16.11° C | 72% | 874.3 hPa | - | - | - | - |
| 1788562870 | 16.67° C | 72% | 874.3 hPa | - | - | - | - |
| 1788562750 | 17.22° C | 72% | 874.4 hPa | - | - | - | - |
| 1788562631 | 17.22° C | 71% | 874.2 hPa | - | - | - | - |
| 1788562510 | 17.22° C | 71% | 873.9 hPa | - | - | - | - |
| 1788562390 | 17.22° C | 71% | 873.6 hPa | - | - | - | - |
| 1788562269 | 17.22° C | 71% | 873.6 hPa | - | - | - | - |
| 1788562149 | 17.22° C | 72% | 873.5 hPa | - | - | - | - |
| 1788562029 | 17.22° C | 72% | 873.6 hPa | - | - | - | - |
* Rain since midnight (hover to see other rain measurements)
** Current wind speed in m/s (hover to see current wind gust speed)